Zurück zum Katalog

AEROCUBE 7

AktivWissenschaftLEO
NORAD 40966·PAYLOAD·🇺🇸 United States

Gestartet Oct 8, 2015 von Vandenberg Space Force Base

Loading…

Nächste Überflüge (nächste 24 Stunden)

TLE

AktuellSource: Space-Track

Epoche: Sep 14, 2026, 04:59 UTC

1 40966U 15058C   26257.20791927  .00001928  00000-0  15856-3 0  9991
2 40966  64.7629 325.8399 0127309  27.7409 333.0419 14.96301283379279

Verfolge AEROCUBE 7 in Echtzeit mit AllMySat

Download on the App Store